Clarksdale Fletcher Field Air, MS

4:42 AM CST on December 13, 2019 (GMT -0600)
Fletcher

Weather History for KCKM - November, 2019

Change the Weather History Date:

Saturday, November 16, 2019

  Actual Average (KUOX) Record (KUOX)
Temperature  
Mean Temperature 42 °F -  
Max Temperature 55 °F 62 °F 82 °F (1958)
Min Temperature 28 °F 38 °F 15 °F (1940)
Degree Days  
Heating Degree Days 24    
Moisture  
Dew Point 33 °F    
Average Humidity 78    
Maximum Humidity 100    
Minimum Humidity 41    
Precipitation  
Precipitation 0.00 in - - ()
Sea Level Pressure  
Sea Level Pressure 30.22 in    
Wind  
Wind Speed 6 mph ()    
Max Wind Speed 12 mph    
Max Gust Speed 17 mph    
Visibility 8.9 miles    
Events      
Averages and records for this station are not official NWS values.
T = Trace of Precipitation, MM = Missing Value Source: Averaged Metar Reports

Daily Weather History Graph

Daily Weather History Graph

Search for Another Location

Airport or City:

Astronomy

Nov. 16, 2019 Rise Set
Actual Time 6:35 AM CST 4:57 PM CST
Civil Twilight 6:09 AM CST 5:24 PM CST
Nautical Twilight 5:38 AM CST 5:54 PM CST
Astronomical Twilight 5:09 AM CST 6:24 PM CST
Moon 8:34 PM CST (11/16) 10:25 AM CST (11/16)
Length of Visible Light 11h 14m
Length of Day
10h 21m
Waning Gibbous, 82% of the Moon is Illuminated
Nov 16
Waning Gibbous
Nov 19
Last Quarter
Nov 26
New
Dec 4
First Quarter
Dec 11
Full

Hourly Weather History & Observations

Time (CST) Temp. Windchill Dew Point Humidity Pressure Visibility Wind Dir Wind Speed Gust Speed Precip Events Conditions
12:15 AM 32.0 °F 24.8 °F 30.2 °F 93% 30.30 in 8.0 mi North 8.1 mph - N/A   Unknown
12:35 AM 32.0 °F 28.7 °F 30.2 °F 93% 30.30 in 7.0 mi NNW 3.5 mph - N/A   Unknown
1:15 AM 30.2 °F - 30.2 °F 100% 30.29 in 7.0 mi Calm Calm - N/A   Unknown
2:15 AM 32.0 °F 25.6 °F 30.2 °F 93% 30.28 in 10.0 mi North 6.9 mph - N/A   Unknown
2:35 AM 32.0 °F 25.6 °F 28.4 °F 87% 30.28 in 9.0 mi North 6.9 mph - N/A   Unknown
2:55 AM 30.2 °F 24.3 °F 28.4 °F 93% 30.28 in 8.0 mi North 5.8 mph - N/A   Unknown
3:15 AM 28.4 °F 20.4 °F 28.4 °F 100% 30.28 in 8.0 mi North 8.1 mph - N/A   Unknown
3:35 AM 30.2 °F - 28.4 °F 93% 30.29 in 7.0 mi Calm Calm - N/A   Unknown
3:55 AM 30.2 °F 24.3 °F 28.4 °F 93% 30.28 in 7.0 mi North 5.8 mph - N/A   Unknown
4:15 AM 28.4 °F 20.4 °F 28.4 °F 100% 30.28 in 7.0 mi North 8.1 mph - N/A   Unknown
4:55 AM 30.2 °F 24.3 °F 28.4 °F 93% 30.28 in 7.0 mi NNW 5.8 mph - N/A   Unknown
5:15 AM 30.2 °F 25.4 °F 28.4 °F 93% 30.28 in 8.0 mi NNW 4.6 mph - N/A   Unknown
5:35 AM 28.4 °F 22.2 °F 28.4 °F 100% 30.28 in 7.0 mi NNW 5.8 mph - N/A   Unknown
5:55 AM 30.2 °F 23.4 °F 28.4 °F 93% 30.29 in 7.0 mi NNW 6.9 mph - N/A   Unknown
6:55 AM 30.2 °F 23.4 °F 30.2 °F 100% 30.29 in 4.0 mi North 6.9 mph - N/A   Mist
7:15 AM 32.0 °F 24.2 °F 30.2 °F 93% 30.29 in 7.0 mi North 9.2 mph - N/A   Unknown
7:55 AM 33.8 °F 26.4 °F 32.0 °F 93% 30.30 in 7.0 mi North 9.2 mph - N/A   Unknown
8:15 AM 35.6 °F 28.0 °F 32.0 °F 87% 30.30 in 8.0 mi North 10.4 mph - N/A   Unknown
8:35 AM 35.6 °F 28.6 °F 32.0 °F 87% 30.30 in 8.0 mi North 9.2 mph - N/A   Unknown
8:55 AM 37.4 °F 30.8 °F 32.0 °F 81% 30.30 in 8.0 mi NNE 9.2 mph - N/A   Unknown
9:15 AM 39.2 °F 32.0 °F 32.0 °F 75% 30.30 in 9.0 mi North 11.5 mph - N/A   Unknown
9:35 AM 39.2 °F 33.0 °F 32.0 °F 75% 30.30 in 9.0 mi NNE 9.2 mph - N/A   Unknown
9:55 AM 41.0 °F 35.8 °F 32.0 °F 70% 30.30 in 9.0 mi North 8.1 mph - N/A   Unknown
10:15 AM 42.8 °F 38.6 °F 32.0 °F 66% 30.30 in 9.0 mi NNE 6.9 mph - N/A   Unknown
10:35 AM 44.6 °F 40.2 °F 32.0 °F 61% 30.29 in 10.0 mi North 8.1 mph - N/A   Unknown
10:55 AM 44.6 °F 40.2 °F 32.0 °F 61% 30.28 in 10.0 mi North 8.1 mph - N/A   Unknown
11:35 AM 46.4 °F 43.5 °F 32.0 °F 57% 30.26 in 10.0 mi NNW 5.8 mph 15.0 mph N/A   Unknown
11:55 AM 48.2 °F - 30.2 °F 50% 30.25 in 10.0 mi North 8.1 mph - N/A   Unknown
12:15 PM 50.0 °F - 32.0 °F 50% 30.24 in 10.0 mi North 8.1 mph - N/A   Unknown
12:35 PM 50.0 °F - 30.2 °F 47% 30.23 in 10.0 mi NNE 8.1 mph 13.8 mph N/A   Unknown
12:55 PM 51.8 °F - 32.0 °F 47% 30.21 in 10.0 mi North 8.1 mph 13.8 mph N/A   Unknown
1:35 PM 53.6 °F - 32.0 °F 44% 30.20 in 10.0 mi North 9.2 mph 17.3 mph N/A   Unknown
1:55 PM 53.6 °F - 33.8 °F 47% 30.19 in 10.0 mi NNW 9.2 mph - N/A   Unknown
2:15 PM 53.6 °F - 33.8 °F 47% 30.18 in 10.0 mi North 10.4 mph - N/A   Unknown
2:35 PM 55.4 °F - 32.0 °F 41% 30.17 in 10.0 mi North 10.4 mph - N/A   Unknown
2:55 PM 55.4 °F - 32.0 °F 41% 30.17 in 10.0 mi North 10.4 mph - N/A   Unknown
3:35 PM 55.4 °F - 33.8 °F 44% 30.16 in 10.0 mi North 6.9 mph - N/A   Unknown
3:55 PM 55.4 °F - 33.8 °F 44% 30.16 in 10.0 mi North 10.4 mph - N/A   Unknown
4:15 PM 53.6 °F - 35.6 °F 51% 30.16 in 10.0 mi North 9.2 mph - N/A   Unknown
4:35 PM 51.8 °F - 35.6 °F 54% 30.16 in 10.0 mi NNW 4.6 mph - N/A   Unknown
4:55 PM 50.0 °F - 37.4 °F 62% 30.16 in 10.0 mi NNW 4.6 mph - N/A   Unknown
5:35 PM 42.8 °F 40.1 °F 35.6 °F 76% 30.15 in 9.0 mi NNW 4.6 mph - N/A   Unknown
5:55 PM 42.8 °F 41.1 °F 35.6 °F 76% 30.15 in 10.0 mi NW 3.5 mph - N/A   Unknown
6:35 PM 41.0 °F 39.0 °F 35.6 °F 81% 30.15 in 10.0 mi NNW 3.5 mph - N/A   Unknown
6:55 PM 41.0 °F - 35.6 °F 81% 30.15 in 10.0 mi Calm Calm - N/A   Unknown
7:15 PM 41.0 °F - 35.6 °F 81% 30.16 in 10.0 mi Calm Calm - N/A   Unknown
7:35 PM 39.2 °F - 35.6 °F 87% 30.15 in 10.0 mi Calm Calm - N/A   Unknown
7:55 PM 39.2 °F 35.0 °F 35.6 °F 87% 30.15 in 10.0 mi North 5.8 mph - N/A   Unknown
8:15 PM 37.4 °F 31.4 °F 35.6 °F 93% 30.14 in 10.0 mi North 8.1 mph - N/A   Unknown
8:35 PM 37.4 °F - 37.4 °F 100% 30.14 in 10.0 mi North - - N/A   Unknown
8:55 PM 39.2 °F 35.9 °F 37.4 °F 93% 30.15 in 10.0 mi NNW 4.6 mph - N/A   Unknown
9:15 PM 37.4 °F 33.8 °F 35.6 °F 93% 30.15 in 10.0 mi NNW 4.6 mph - N/A   Unknown
9:35 PM 37.4 °F - 37.4 °F 100% 30.15 in 10.0 mi Calm Calm - N/A   Unknown
9:55 PM 39.2 °F 35.9 °F 37.4 °F 93% 30.15 in 10.0 mi North 4.6 mph - N/A   Unknown
10:15 PM 37.4 °F - 37.4 °F 100% 30.15 in 10.0 mi Calm Calm - N/A   Unknown
10:55 PM 37.4 °F 32.8 °F 37.4 °F 100% 30.13 in 10.0 mi North 5.8 mph - N/A   Unknown
11:15 PM 35.6 °F 30.7 °F 35.6 °F 100% 30.13 in 9.0 mi North 5.8 mph - N/A   Unknown
11:55 PM 33.8 °F - 33.8 °F 100% 30.14 in 6.0 mi Calm Calm - N/A   Mist